Powrót do katalogu

CZ-6A DEB

AktywnyPO
NORAD 61132·DEBRIS·🇨🇳 China

Wystrzelony Aug 6, 2024 z Taiyuan Satellite Launch Center

Loading…

Następne Przeloty (najbliższe 24 godziny)

TLE

ŚwieżeSource: Space-Track

Epoka: Sep 14, 2026, 10:37 UTC

1 61132U 24140QA  26257.44301937  .00002494  00000-0  73563-3 0  9993
2 61132  88.9783 260.0532 0044832  57.5758 302.9769 14.42752705108343

Śledź CZ-6A DEB w czasie rzeczywistym z AllMySat

Download on the App Store